Lexington Weather

Lexington, Massachusetts, USA

37°F
3/2/2024 7:14am 
  • Lexington Conditions: Light rain, Overcast
  • Temperature: 36.9°F / 2.7°CWarmer 0.6°F than last hour.
  • Dew Point: 31.3°FIncreased 0.9°Fsince last hour.
  • Relative Humidity: 80%Increased 1.0% since last hour.
  • Wind: Calm, 10-min avg: Calm, gust: None
  • Barometer: 30.46 in Steady
  • Visibility: 10 miles
  • Rain Today: 0.00 in
  •   

Regional Weather Roundup
for Boston, MA

        
000
ASUS41 KBOX 011510
RWRBOX

REGIONAL WEATHER ROUNDUP
NATIONAL WEATHER SERVICE BOSTON/NORTON MA
1000 AM EST FRI MAR 01 2024

NOTE:  "FAIR" INDICATES FEW OR NO CLOUDS BELOW 12,000 FEET WITH NO 
SIGNIFICANT WEATHER AND/OR OBSTRUCTIONS TO VISIBILITY.

MAZALL-011600-
EASTERN MASSACHUSETTS
  
CITY           SKY/WX    TMP DP  RH WIND       PRES   REMARKS
BOSTON         MOSUNNY   31   9  39 SW14G22   30.60S WCI  21          
BEVERLY        SUNNY     30   8  39 SW13      30.58F WCI  20          
LAWRENCE       SUNNY     29   7  39 SW9       30.60R WCI  20          
BEDFORD        SUNNY     31  10  41 SW8       30.58S WCI  23          
NORWOOD        MOSUNNY   31  11  43 SW10      30.61S WCI  22          
MARSHFIELD     MOSUNNY   30  10  43 SW13      30.62S WCI  20          
PLYMOUTH       PTSUNNY   30  13  49 SW12      30.60S WCI  20          
TAUNTON        PTSUNNY   32  11  41 VRB7      30.62S WCI  26          
NEW BEDFORD    PTSUNNY   32  12  43 W8        30.62S WCI  25          
$$

MAZALL-011600-
CAPE COD AND THE ISLANDS
  
CITY           SKY/WX    TMP DP  RH WIND       PRES   REMARKS
FALMOUTH       SUNNY     30  10  43 W6        30.63S WCI  24          
HYANNIS        PTSUNNY   29  12  49 SW8       30.61F WCI  21          
CHATHAM        MOSUNNY   31   9  39 VRB5      30.64R WCI  26          
PROVINCETOWN   MOSUNNY   31  12  45 W10       30.63S WCI  22          
NANTUCKET      MOSUNNY   33  16  49 SW13      30.65R WCI  24          
MARTHAS VNYRD  MOSUNNY   33   9  36 SW9       30.64S WCI  25          
$$
 
MAZALL-011600-
CENTRAL AND WESTERN MASSACHUSETTS
  
CITY           SKY/WX    TMP DP  RH WIND       PRES   REMARKS
WORCESTER      MOSUNNY   27  13  55 W14       30.52S WCI  16          
FITCHBURG      SUNNY     31  12  45 NW9       30.57S WCI  23          
ORANGE         MOSUNNY   28  13  53 S8        30.56S WCI  20          
SPRINGFIELD    MOSUNNY   31  13  46 SW8       30.57S WCI  23          
WESTFIELD      SUNNY     27  16  63 SW9       30.59S WCI  17          
NORTH ADAMS    PTSUNNY   31  15  52 SW14      30.54F WCI  21          
PITTSFIELD     SUNNY     28  15  58 SW9       30.50S WCI  19          
$$
 
RIZALL-011600-
RHODE ISLAND
  
CITY           SKY/WX    TMP DP  RH WIND       PRES   REMARKS
PROVIDENCE     PTSUNNY   31  13  47 W9        30.63S WCI  23          
NEWPORT        MOSUNNY   32  14  47 VRB6      30.62F WCI  26          
BLOCK ISLAND   SUNNY     34  13  41 W8        30.64F WCI  27          
SMITHFIELD     PTSUNNY   29  15  56 SW8       30.60S WCI  21          
WESTERLY       SUNNY     33  14  45 SW7       30.63S WCI  27          
$$
 
CTZALL-011600-
CONNECTICUT
  
CITY           SKY/WX    TMP DP  RH WIND       PRES   REMARKS
BRADLEY INTL   PTSUNNY   33  13  43 S12       30.60S WCI  24          
HARTFORD       MOSUNNY   34  14  43 S10       30.62S WCI  26          
PLAINVILLE     FAIR      33  12  41 SW8       30.60S WCI  26          
BRIDGEPORT     SUNNY     34  16  47 SW9       30.64R WCI  27          
DANBURY        SUNNY     33  14  45 S5        30.62S WCI  29          
GROTON         SUNNY     35  16  45 SW8       30.63S WCI  29          
NEW HAVEN      SUNNY     36  17  46 SW10      30.64R WCI  28          
CHESTER        SUNNY     36  12  38 S8        30.61R WCI  29          
MERIDEN        SUNNY     34  12  40 S8        30.63R WCI  27          
WILLIMANTIC    MOSUNNY   32  13  45 W6        30.61S WCI  26          
OXFORD         SUNNY     31  14  49 SW8       30.59S WCI  23          
$$

MEZ002-015-021-024-NHZ003-005-008-011-012-014-VTZ005-008-011600-
NORTHERN NEW ENGLAND
  
CITY           SKY/WX    TMP DP  RH WIND       PRES   REMARKS
PORTLAND ME    MOSUNNY   23   0  36 W10G18    30.55S WCI  12          
BANGOR ME      MOSUNNY   15  -2  46 W12G18    30.49S WCI   2          
CONCORD NH     SUNNY     27   6  41 MISG      30.55S                  
MANCHESTER NH  MOSUNNY   29   6  38 VRB7G17   30.55S WCI  22          
NASHUA NH      SUNNY     30  11  45 VRB7      30.57F WCI  23          
PORTSMOUTH NH  MOSUNNY   28   3  34 SW8       30.57S WCI  20          
JAFFREY NH     SUNNY     28  10  46 SW8       30.51R WCI  20          
KEENE NH       SUNNY     29  13  51 SW10      30.54S WCI  20          
BURLINGTON VT  PTSUNNY   24   7  48 S13       30.52S WCI  12          
MT. WASHINGTON BLWGSNOW  -4  -4 100 NW79G97     N/A  VSB 1/16WCI -42  
$$

NYZ052-076-011600-
EASTERN NEW YORK
  
CITY           SKY/WX    TMP DP  RH WIND       PRES   REMARKS
ALBANY         MOSUNNY   31  16  54 SE9       30.58S WCI  23          
NEW YORK CITY  MOSUNNY   38  14  37 NW7       30.64R                  
$$
 
ANZALL-011600-
MARINE OBSERVATIONS
  
STATION/POSITION TIME  TEMP    WIND        PRES    VSBY  WAVE
                       AIR SEA DIR/SP/G                  HT/PER
                 (UTC) (F)     (DEG/KT/KT) (MB)    (MI)  (FT/S)
BOSTON BUOY      1450   28 40  210/  8/ 12 1036.3S         1/ 4
BUZZARDS BAY     1400   29     270/ 10/ 12 1038.2R
NANTUCKET SOUND  1450   30 38  250/  8/ 10 1037.3R         1
MASS BAY-STELLWA 1304   26 40  270/  2/  6 1036.9R  1 7/8  1/ 4
ISLE OF SHOALS   1400   22     250/  9/ 11 1035.4R
S OF BLOCK IS    1456      41                N/A           3/ 6
$$

......................KEY.........................
  SKY/WX - SKY CONDITION/PRESENT WEATHER
  TMP    - TEMPERATURE IN FAHRENHEIT
  DWPT   - DEWPOINT IN FAHRENHEIT
  RH     - RELATIVE HUMIDITY IN PERCENT
  WIND   - DIRECTION AND SPEED IN MPH
  PRES   - MEAN SEA LEVEL PRESSURE IN INCHES OF HG
  WCI    - WIND CHILL INDEX
  VSB    - VISIBILITY IN MILES
  HX     - HEAT INDEX
  TC     - TEMPERATURE IN CELSIUS
  VRB    - VARIABLE WIND DIRECTION
  N/A    - NOT AVAILABLE
  
      

Other recent Regional Weather Roundups

Sat Mar 2, 6:10am EST

Sat Mar 2, 5:10am EST

Sat Mar 2, 4:10am EST

Sat Mar 2, 3:10am EST

Sat Mar 2, 2:10am EST

Sat Mar 2, 1:10am EST

Sat Mar 2, 12:10am EST

Fri Mar 1, 11:10pm EST

Fri Mar 1, 10:10pm EST

Fri Mar 1, 9:10pm EST

Fri Mar 1, 8:10pm EST

Fri Mar 1, 7:10pm EST

Fri Mar 1, 6:10pm EST

Fri Mar 1, 5:10pm EST

Fri Mar 1, 4:10pm EST

Fri Mar 1, 3:10pm EST

Fri Mar 1, 2:10pm EST

Fri Mar 1, 1:10pm EST

Fri Mar 1, 12:10pm EST

Fri Mar 1, 11:10am EST

Fri Mar 1, 9:10am EST

Fri Mar 1, 8:10am EST

Fri Mar 1, 7:10am EST

Fri Mar 1, 6:10am EST

Fri Mar 1, 5:10am EST

Fri Mar 1, 4:10am EST

Fri Mar 1, 3:10am EST

Fri Mar 1, 2:10am EST

Fri Mar 1, 1:10am EST

Fri Mar 1, 12:10am EST

Thu Feb 29, 11:10pm EST

Thu Feb 29, 10:10pm EST

Thu Feb 29, 9:10pm EST

Thu Feb 29, 8:10pm EST

Thu Feb 29, 7:10pm EST

Thu Feb 29, 6:10pm EST

Thu Feb 29, 5:10pm EST

Thu Feb 29, 4:10pm EST

Thu Feb 29, 3:10pm EST

Thu Feb 29, 2:10pm EST

Thu Feb 29, 1:10pm EST

Thu Feb 29, 12:10pm EST

Thu Feb 29, 11:10am EST

Thu Feb 29, 10:10am EST

Thu Feb 29, 9:10am EST

Thu Feb 29, 8:10am EST

Thu Feb 29, 7:10am EST

Thu Feb 29, 6:10am EST

Thu Feb 29, 5:10am EST

Thu Feb 29, 4:10am EST

Thu Feb 29, 3:10am EST

Thu Feb 29, 2:10am EST

Thu Feb 29, 1:10am EST

Thu Feb 29, 12:10am EST

Wed Feb 28, 11:10pm EST

Wed Feb 28, 10:10pm EST

Wed Feb 28, 9:10pm EST

Wed Feb 28, 8:10pm EST

Wed Feb 28, 7:10pm EST

Wed Feb 28, 6:10pm EST

Wed Feb 28, 5:10pm EST

Wed Feb 28, 4:10pm EST

Wed Feb 28, 3:10pm EST

Wed Feb 28, 2:10pm EST

Wed Feb 28, 1:10pm EST

Wed Feb 28, 12:10pm EST

Wed Feb 28, 11:10am EST

Wed Feb 28, 10:10am EST

Wed Feb 28, 9:10am EST

Wed Feb 28, 8:10am EST

Wed Feb 28, 7:10am EST

Wed Feb 28, 6:10am EST

Wed Feb 28, 5:10am EST

Wed Feb 28, 4:10am EST

Wed Feb 28, 3:10am EST

Wed Feb 28, 2:10am EST

Wed Feb 28, 1:10am EST

Wed Feb 28, 12:10am EST

Tue Feb 27, 11:10pm EST

Tue Feb 27, 10:10pm EST

Tue Feb 27, 9:10pm EST

Tue Feb 27, 8:10pm EST

Tue Feb 27, 7:10pm EST

Tue Feb 27, 6:10pm EST

Tue Feb 27, 5:10pm EST

Tue Feb 27, 4:10pm EST

Tue Feb 27, 3:10pm EST

Tue Feb 27, 2:10pm EST

Tue Feb 27, 1:10pm EST

Tue Feb 27, 12:10pm EST

Tue Feb 27, 11:10am EST

Tue Feb 27, 10:10am EST

Tue Feb 27, 9:10am EST

Tue Feb 27, 8:10am EST

Tue Feb 27, 7:10am EST

Tue Feb 27, 6:10am EST

Tue Feb 27, 5:10am EST

Tue Feb 27, 4:10am EST

Tue Feb 27, 3:10am EST

Tue Feb 27, 2:10am EST

Tue Feb 27, 1:10am EST

Tue Feb 27, 12:10am EST

Mon Feb 26, 11:10pm EST

Mon Feb 26, 10:10pm EST

Mon Feb 26, 9:10pm EST

Mon Feb 26, 8:10pm EST

Mon Feb 26, 7:10pm EST

Mon Feb 26, 6:10pm EST

Mon Feb 26, 5:10pm EST

Mon Feb 26, 4:10pm EST

Mon Feb 26, 3:10pm EST

Mon Feb 26, 2:10pm EST

Mon Feb 26, 1:10pm EST

Mon Feb 26, 12:10pm EST

Mon Feb 26, 11:10am EST

Mon Feb 26, 10:10am EST

Mon Feb 26, 9:10am EST

Mon Feb 26, 8:10am EST

Mon Feb 26, 7:10am EST

Mon Feb 26, 6:10am EST

Mon Feb 26, 5:10am EST

Mon Feb 26, 4:10am EST

Mon Feb 26, 3:10am EST

Mon Feb 26, 2:10am EST

Mon Feb 26, 1:10am EST

Mon Feb 26, 12:10am EST

Sun Feb 25, 11:10pm EST

Sun Feb 25, 10:10pm EST

Sun Feb 25, 9:10pm EST

Sun Feb 25, 8:10pm EST

Sun Feb 25, 7:10pm EST

Sun Feb 25, 6:10pm EST

Sun Feb 25, 5:10pm EST

Sun Feb 25, 4:10pm EST

Sun Feb 25, 3:10pm EST

Sun Feb 25, 2:10pm EST

Sun Feb 25, 1:10pm EST

Sun Feb 25, 12:10pm EST

Sun Feb 25, 11:10am EST

Sun Feb 25, 10:10am EST

Sun Feb 25, 9:10am EST

Sun Feb 25, 8:10am EST

Sun Feb 25, 7:10am EST

Sun Feb 25, 6:10am EST

Sun Feb 25, 5:10am EST

Sun Feb 25, 4:10am EST

Sun Feb 25, 3:10am EST

Sun Feb 25, 2:10am EST

Sun Feb 25, 1:10am EST

Sun Feb 25, 12:10am EST

Sat Feb 24, 11:10pm EST

Sat Feb 24, 10:10pm EST

Sat Feb 24, 9:10pm EST

Sat Feb 24, 8:10pm EST

Sat Feb 24, 7:10pm EST

Sat Feb 24, 6:10pm EST

Sat Feb 24, 5:10pm EST

Sat Feb 24, 4:10pm EST

Sat Feb 24, 3:10pm EST

Sat Feb 24, 2:10pm EST

Sat Feb 24, 1:10pm EST

Sat Feb 24, 12:10pm EST

Sat Feb 24, 11:10am EST

Sat Feb 24, 10:10am EST

Sat Feb 24, 9:10am EST

Sat Feb 24, 8:10am EST

Sat Feb 24, 7:10am EST